Location: Amon Carter Post Office
(32.8281°N, 97.0484°W)
Time: 14:58:40
(UTC+00:00)

H-2A R/B - Pass Details

Date: 08 December 2021
Orbit: 576 x 654 km, 98.5° (Epoch: 26 January)

Event Time Altitude Azimuth Distance (km) Brightness Sun altitude
Rises 12:34:16 0° 157° (SSE) 2,838 6.2 -9.3°
Reaches altitude 10° 12:36:25 10° 153° (SSE) 1,951 5.4 -8.9°
Maximum altitude 12:40:35 58° 75° (ENE) 725 2.7 -8.1°
Drops below altitude 10° 12:44:52 10° 356° (N) 2,011 4.4 -7.3°
Sets 12:47:07 0° 353° (N) 2,934 5.2 -6.8°
